Location: Geroldsau
(48.7259°N, 8.2466°E)
Time: 15:07:39
(UTC+00:00)

CBERS-1 - Pass Details

Date: 20 June 2021
Orbit: 770 x 776 km, 98.7° (Epoch: 31 July)

Event Time Altitude Azimuth Distance (km) Brightness Sun altitude
Rises 01:58:18 0° 16° (NNE) 3,268 8.8 -10.5°
Reaches altitude 10° 02:00:39 10° 19° (NNE) 2,337 7.9 -10.2°
Maximum altitude 02:05:47 69° 103° (ESE) 833 4.3 -9.8°
Drops below altitude 10° 02:10:53 10° 187° (S) 2,320 6.0 -9.3°
Enters shadow 02:11:26 - 187° (S) 2,535 6.2 -9.2°
